TimeEDT,TemperatureF,Dew PointF,Humidity,Sea Level PressureIn,VisibilityMPH,Wind Direction,Wind SpeedMPH,Gust SpeedMPH,PrecipitationIn,Events,Conditions,WindDirDegrees,DateUTC
12:15 AM,59.0,57.2,94,29.95,5.0,SSW,4.6,-,N/A,,Overcast,200,2013-09-08 04:15:00
12:35 AM,59.0,57.2,94,29.95,3.0,SSW,5.8,-,N/A,,Overcast,200,2013-09-08 04:35:00
12:55 AM,60.8,57.2,88,29.95,7.0,SSW,6.9,-,N/A,,Overcast,200,2013-09-08 04:55:00
1:15 AM,60.8,57.2,88,29.95,8.0,SSW,5.8,-,N/A,,Mostly Cloudy,200,2013-09-08 05:15:00
1:35 AM,59.0,57.2,94,29.95,5.0,SSW,4.6,-,N/A,,Overcast,200,2013-09-08 05:35:00
1:55 AM,60.8,57.2,88,29.94,5.0,SSW,5.8,-,N/A,,Mostly Cloudy,210,2013-09-08 05:55:00
2:15 AM,60.8,59.0,94,29.93,6.0,SSW,5.8,-,N/A,,Overcast,210,2013-09-08 06:15:00
2:35 AM,60.8,59.0,94,29.94,6.0,SW,8.1,-,N/A,,Overcast,230,2013-09-08 06:35:00
2:55 AM,60.8,59.0,94,29.93,5.0,SW,8.1,-,N/A,,Overcast,230,2013-09-08 06:55:00
3:15 AM,60.8,59.0,94,29.93,4.0,SW,5.8,-,N/A,,Overcast,230,2013-09-08 07:15:00
3:35 AM,60.8,59.0,94,29.93,4.0,WSW,6.9,-,N/A,,Overcast,240,2013-09-08 07:35:00
3:55 AM,60.8,59.0,94,29.93,4.0,SW,6.9,-,N/A,,Overcast,230,2013-09-08 07:55:00
4:15 AM,60.8,59.0,94,29.93,3.0,WSW,8.1,-,N/A,,Overcast,240,2013-09-08 08:15:00
4:35 AM,62.6,60.8,94,29.93,7.0,WSW,8.1,-,N/A,,Mostly Cloudy,250,2013-09-08 08:35:00
4:55 AM,62.6,60.8,94,29.93,8.0,West,8.1,-,N/A,,Overcast,280,2013-09-08 08:55:00
5:15 AM,64.4,62.6,94,29.93,6.0,West,9.2,-,N/A,,Overcast,270,2013-09-08 09:15:00
5:35 AM,64.4,62.6,94,29.94,3.0,WNW,8.1,-,N/A,,Overcast,300,2013-09-08 09:35:00
5:55 AM,64.4,62.6,94,29.95,2.5,NNW,8.1,-,0.08,,Overcast,330,2013-09-08 09:55:00
6:15 AM,64.4,62.6,94,29.95,0.8,NNW,8.1,-,N/A,,Overcast,340,2013-09-08 10:15:00
6:35 AM,62.6,62.6,100,29.96,0.5,North,6.9,-,0.01,,Overcast,350,2013-09-08 10:35:00
6:55 AM,62.6,62.6,100,29.96,0.5,NNW,8.1,-,0.02,,Overcast,340,2013-09-08 10:55:00
7:15 AM,62.6,62.6,100,29.97,1.8,North,10.4,-,N/A,,Overcast,350,2013-09-08 11:15:00
7:35 AM,62.6,60.8,94,29.98,2.5,NNW,9.2,-,N/A,,Overcast,340,2013-09-08 11:35:00
7:55 AM,62.6,60.8,94,29.99,5.0,NNW,11.5,18.4,N/A,,Overcast,340,2013-09-08 11:55:00
8:15 AM,60.8,60.8,100,30.00,5.0,NNE,8.1,-,N/A,,Overcast,20,2013-09-08 12:15:00
8:35 AM,60.8,60.8,100,30.01,7.0,North,8.1,-,N/A,,Overcast,350,2013-09-08 12:35:00
8:55 AM,60.8,59.0,94,30.01,10.0,North,8.1,-,N/A,,Overcast,350,2013-09-08 12:55:00
9:15 AM,60.8,59.0,94,30.02,10.0,North,11.5,-,N/A,,Overcast,10,2013-09-08 13:15:00
9:35 AM,60.8,57.2,88,30.03,10.0,North,12.7,-,N/A,,Overcast,10,2013-09-08 13:35:00
9:55 AM,60.8,57.2,88,30.03,10.0,NNE,11.5,-,N/A,,Overcast,30,2013-09-08 13:55:00
10:15 AM,59.0,57.2,94,30.04,10.0,NNE,13.8,17.3,N/A,,Overcast,20,2013-09-08 14:15:00
10:35 AM,59.0,55.4,88,30.04,10.0,NE,12.7,-,N/A,,Overcast,40,2013-09-08 14:35:00
10:55 AM,57.2,55.4,94,30.04,10.0,NNE,13.8,-,N/A,,Overcast,30,2013-09-08 14:55:00
11:15 AM,57.2,55.4,94,30.05,10.0,NNE,13.8,-,N/A,,Overcast,20,2013-09-08 15:15:00
11:35 AM,57.2,53.6,88,30.05,10.0,NNE,9.2,-,N/A,,Overcast,20,2013-09-08 15:35:00
11:55 AM,57.2,53.6,88,30.06,10.0,NNE,11.5,-,N/A,,Overcast,20,2013-09-08 15:55:00
12:15 PM,57.2,53.6,88,30.07,10.0,NNE,12.7,-,N/A,,Overcast,30,2013-09-08 16:15:00
12:35 PM,60.8,53.6,77,30.07,10.0,NE,10.4,-,N/A,,Overcast,50,2013-09-08 16:35:00
12:55 PM,60.8,53.6,77,30.07,10.0,NNE,6.9,-,N/A,,Overcast,20,2013-09-08 16:55:00
1:15 PM,62.6,51.8,68,30.07,10.0,NW,10.4,-,N/A,,Overcast,320,2013-09-08 17:15:00
1:35 PM,64.4,51.8,64,30.07,10.0,North,11.5,-,N/A,,Scattered Clouds,10,2013-09-08 17:35:00
1:55 PM,64.4,51.8,64,30.07,10.0,NNE,10.4,17.3,N/A,,Clear,20,2013-09-08 17:55:00
2:15 PM,64.4,51.8,64,30.07,10.0,NNE,6.9,16.1,N/A,,Partly Cloudy,20,2013-09-08 18:15:00
2:35 PM,64.4,53.6,68,30.06,10.0,NNE,9.2,-,N/A,,Partly Cloudy,30,2013-09-08 18:35:00
2:55 PM,64.4,51.8,64,30.06,10.0,North,12.7,-,N/A,,Clear,350,2013-09-08 18:55:00
3:15 PM,64.4,51.8,64,30.07,10.0,North,12.7,-,N/A,,Clear,360,2013-09-08 19:15:00
3:35 PM,64.4,51.8,64,30.06,10.0,NNW,11.5,-,N/A,,Clear,330,2013-09-08 19:35:00
3:55 PM,64.4,50.0,59,30.07,10.0,North,11.5,-,N/A,,Clear,360,2013-09-08 19:55:00
4:15 PM,64.4,48.2,56,30.07,10.0,North,11.5,-,N/A,,Clear,350,2013-09-08 20:15:00
4:35 PM,64.4,50.0,59,30.07,10.0,North,8.1,-,N/A,,Clear,360,2013-09-08 20:35:00
4:55 PM,64.4,48.2,56,30.07,10.0,North,8.1,-,N/A,,Clear,350,2013-09-08 20:55:00
5:15 PM,62.6,48.2,59,30.07,10.0,North,8.1,-,N/A,,Clear,360,2013-09-08 21:15:00
5:35 PM,62.6,46.4,55,30.08,10.0,North,8.1,-,N/A,,Clear,350,2013-09-08 21:35:00
5:55 PM,62.6,46.4,55,30.08,10.0,North,9.2,-,N/A,,Clear,360,2013-09-08 21:55:00
6:15 PM,60.8,46.4,59,30.09,10.0,North,8.1,-,N/A,,Clear,10,2013-09-08 22:15:00
6:35 PM,60.8,46.4,59,30.09,10.0,North,8.1,-,N/A,,Clear,10,2013-09-08 22:35:00
6:55 PM,60.8,46.4,59,30.09,10.0,NE,8.1,-,N/A,,Clear,40,2013-09-08 22:55:00
7:15 PM,59.0,46.4,63,30.08,10.0,NNE,8.1,-,N/A,,Clear,20,2013-09-08 23:15:00
7:35 PM,57.2,46.4,67,30.09,10.0,NNW,3.5,-,N/A,,Clear,330,2013-09-08 23:35:00
7:55 PM,55.4,46.4,72,30.10,10.0,NNW,3.5,-,N/A,,Clear,340,2013-09-08 23:55:00
8:15 PM,55.4,46.4,72,30.10,10.0,NNE,8.1,-,N/A,,Clear,20,2013-09-09 00:15:00
8:35 PM,55.4,46.4,72,30.11,10.0,NNE,5.8,-,N/A,,Clear,20,2013-09-09 00:35:00
8:55 PM,53.6,46.4,77,30.11,10.0,North,4.6,-,N/A,,Clear,350,2013-09-09 00:55:00
9:15 PM,53.6,44.6,72,30.11,10.0,NNE,6.9,-,N/A,,Clear,30,2013-09-09 01:15:00
9:35 PM,53.6,44.6,72,30.11,10.0,NNE,6.9,-,N/A,,Clear,30,2013-09-09 01:35:00
9:55 PM,51.8,44.6,76,30.11,10.0,NE,5.8,-,N/A,,Clear,50,2013-09-09 01:55:00
10:15 PM,51.8,44.6,76,30.11,10.0,NE,4.6,-,N/A,,Clear,50,2013-09-09 02:15:00
10:35 PM,51.8,46.4,82,30.12,10.0,Calm,Calm,-,N/A,,Clear,0,2013-09-09 02:35:00
10:55 PM,51.8,44.6,76,30.13,10.0,ENE,3.5,-,N/A,,Clear,60,2013-09-09 02:55:00
11:15 PM,51.8,44.6,76,30.12,10.0,NE,3.5,-,N/A,,Clear,50,2013-09-09 03:15:00
11:35 PM,51.8,44.6,76,30.12,10.0,ENE,3.5,-,N/A,,Clear,60,2013-09-09 03:35:00
11:55 PM,50.0,44.6,82,30.13,10.0,Calm,Calm,-,N/A,,Clear,0,2013-09-09 03:55:00